Flag for Germany Weather past 2 weeks in Dinslaken, North Rhine-Westphalia, Germany

Now
61 °F

Low clouds.


Feels Like: 61 °F
Forecast: 48 / 61 °F
Wind: 3 mph from North

Location: Essen

Current Time: Sep 21, 2014 at 4:50:08 AM

Latest Report: Sep 21, 2014 at 4:00 AM


Visibility: 1 mi

Pressure: 29.96 "Hg

Humidity: 98%

Dew point: 60 °F

Location of DinslakenLocation

Historic Weather in Dinslaken — Graph

°F

Dinslaken temperature yesterday

Maximum temperature yesterday: 71 °F (at 3:00 PM)
Minimum temperature yesterday: 60 °F (at 11:00 AM)
Average temperature yesterday: 64 °F

Past Weeks' High & Low Weather Summary

 TemperatureHumidityPressure
High77 °F (Sep 17, 4:00 PM)100% (Sep 14, 6:00 AM)30.25 "Hg (Sep 14, 6:00 AM)
Low48 °F (Sep 12, 6:00 AM)49% (Sep 17, 6:00 PM)29.82 "Hg (Sep 19, 5:00 AM)
Average62 °F81%30.03 "Hg
* Reported Sep 6 4:00 AM — Sep 21 4:00 AM, Dinslaken, Weather by CustomWeather, © 2014

Note: Actual official high and low records may vary slightly from our data, if they occured in-between our weather recording intervals... More about our weather records

Advertising

Dinslaken weather history for previous 24 hours

 ConditionsComfort  
Time TempWeatherWind HumidityBarometerVisibility
4:00 AM
Sep 21
61 °FLow clouds.3 mph98%29.96 "Hg1 mi
3:00 AM61 °FLow clouds.2 mph100%29.96 "Hg1 mi
2:00 AM62 °FFog.1 mph96%29.97 "Hg2 mi
1:00 AM62 °FFog.1 mph92%29.97 "Hg3 mi
12:00 AM62 °FLow clouds.1 mph90%29.97 "Hg6 mi
10:00 PM
Sep 20
62 °FPassing clouds.1 mph90%29.96 "Hg7 mi
9:00 PM64 °FOvercast.1 mph83%29.96 "Hg7 mi
8:00 PM64 °FPassing clouds.1 mph78%29.95 "Hg15 mi
3:00 PM71 °FOvercast.3 mph80%29.93 "Hg6 mi
2:00 PM70 °FOvercast.2 mph79%29.94 "Hg6 mi
1:00 PM67 °FOvercast.2 mph88%29.95 "Hg4 mi
12:00 PM67 °FOvercast.1 mph87%29.95 "Hg7 mi
11:00 AM60 °FLight rain. Low clouds.2 mph97%29.95 "Hg6 mi
10:00 AM64 °FRain. Low clouds.5 mph93%29.96 "Hg1 mi
9:00 AM63 °FFog.2 mph96%29.94 "Hg3 mi
8:00 AM62 °FFog.2 mph98%29.93 "Hg3 mi
7:00 AM62 °FFog.2 mph98%29.92 "Hg3 mi
6:00 AM62 °FFog.2 mph98%29.92 "Hg3 mi
5:00 AM63 °FFog.2 mph98%29.91 "Hg3 mi
4:00 AM63 °FFog.1 mph99%29.91 "Hg2 mi
Weather by CustomWeather, © 2014

See weather overviewHow to use our weather pages